Change the Weather History Date:

Tuesday, February 5, 2013

  Actual Average Record
Temperature  
Mean Temperature 38 °F -  
Max Temperature 50 °F 31 °F 57 °F (1964)
Min Temperature 26 °F 11 °F -20 °F (1979)
Degree Days  
Heating Degree Days 27    
Moisture  
Dew Point 26 °F    
Average Humidity 71    
Maximum Humidity 89    
Minimum Humidity 43    
Precipitation  
Precipitation 0.00 in - - ()
Sea Level Pressure  
Sea Level Pressure 29.96 in    
Wind  
Wind Speed 10 mph (WNW)    
Max Wind Speed 18 mph    
Max Gust Speed 30 mph    
Visibility 8 miles    
Events      
Averages and records for this station are not official NWS values.
T = Trace of Precipitation, MM = Missing Value Source: NWS Daily Summary

Daily Weather History Graph

Daily Weather History Graph

Search for Another Location

Airport or City:

Trip Planner

Search our weather history database for the weather conditions in past years. The results will help you decide how hot, cold, wet, or windy it might be!

Date:

Astronomy

Feb. 05, 2013 Rise Set
Actual Time 7:32 AM CST 5:45 PM CST
Civil Twilight 7:03 AM CST 6:14 PM CST
Nautical Twilight 6:30 AM CST 6:47 PM CST
Astronomical Twilight 5:57 AM CST 7:20 PM CST
Moon 3:16 AM CST (2/5) 1:02 PM CST (2/5)
Length of Visible Light 11h 11m
Length of Day
10h 13m
Waning Crescent, 26% of the Moon is Illuminated
Feb 5
Waning Crescent
Feb 10
New
Feb 17
First Quarter
Feb 25
Full
Mar 4
Last Quarter

Hourly Weather History & Observations

Time (CST) Temp. Windchill Dew Point Humidity Pressure Visibility Wind Dir Wind Speed Gust Speed Precip Events Conditions
12:54 AM 27.0 °F 17.3 °F 23.0 °F 85% 29.90 in 3.0 mi SSW 10.4 mph - N/A   Overcast
1:05 AM 26.6 °F 17.5 °F 23.0 °F 86% 29.86 in 2.5 mi SSW 9.2 mph - N/A   Overcast
1:54 AM 28.0 °F 17.5 °F 24.1 °F 85% 29.87 in 3.0 mi South 12.7 mph - N/A   Overcast
2:54 AM 28.0 °F 20.0 °F 24.1 °F 85% 29.85 in 6.0 mi SSW 8.1 mph - N/A   Overcast
3:54 AM 28.0 °F 18.6 °F 24.1 °F 85% 29.83 in 6.0 mi South 10.4 mph - N/A   Clear
4:54 AM 30.0 °F 23.2 °F 26.1 °F 85% 29.83 in 7.0 mi SW 6.9 mph - N/A   Scattered Clouds
5:54 AM 30.9 °F 23.5 °F 26.1 °F 82% 29.84 in 8.0 mi SW 8.1 mph - N/A   Overcast
6:54 AM 30.9 °F - 26.1 °F 82% 29.85 in 8.0 mi Calm Calm - N/A   Partly Cloudy
7:54 AM 30.0 °F - 25.0 °F 82% 29.88 in 7.0 mi Calm Calm - N/A   Clear
9:54 AM 44.1 °F 36.2 °F 30.9 °F 60% 29.94 in 10.0 mi NNW 18.4 mph 29.9 mph N/A   Clear
10:54 AM 46.0 °F 39.0 °F 30.9 °F 56% 29.97 in 10.0 mi NW 17.3 mph - N/A   Clear
11:54 AM 48.0 °F - 30.0 °F 50% 29.98 in 10.0 mi NNW 18.4 mph 26.5 mph N/A   Clear
12:54 PM 50.0 °F - 28.9 °F 44% 29.99 in 10.0 mi NW 18.4 mph - N/A   Clear
1:54 PM 50.0 °F - 28.0 °F 43% 29.99 in 10.0 mi NNW 17.3 mph - N/A   Clear
2:54 PM 48.9 °F - 27.0 °F 43% 29.99 in 10.0 mi NW 15.0 mph 25.3 mph N/A   Clear
3:54 PM 48.0 °F - 27.0 °F 44% 30.01 in 10.0 mi NW 13.8 mph - N/A   Clear
4:54 PM 46.9 °F - 28.0 °F 48% 30.01 in 10.0 mi NNW 10.4 mph - N/A   Clear
5:54 PM 37.0 °F 31.0 °F 26.1 °F 65% 30.03 in 10.0 mi NNW 8.1 mph - N/A   Clear
6:54 PM 33.1 °F - 25.0 °F 72% 30.06 in 10.0 mi Calm Calm - N/A   Clear
7:54 PM 30.0 °F 26.5 °F 24.1 °F 79% 30.07 in 10.0 mi North 3.5 mph - N/A   Clear
8:54 PM 28.9 °F 21.1 °F 25.0 °F 85% 30.08 in 9.0 mi North 8.1 mph - N/A   Clear
9:54 PM 28.0 °F - 25.0 °F 88% 30.09 in 6.0 mi Calm Calm - N/A   Clear
10:54 PM 27.0 °F - 24.1 °F 89% 30.09 in 5.0 mi Calm Calm - N/A   Clear
11:54 PM 28.0 °F 22.8 °F 25.0 °F 88% 30.08 in 4.0 mi SE 4.6 mph - N/A   Clear